TimeCDT,TemperatureF,Dew PointF,Humidity,Sea Level PressureIn,VisibilityMPH,Wind Direction,Wind SpeedMPH,Gust SpeedMPH,PrecipitationIn,Events,Conditions,WindDirDegrees,DateUTC
12:53 AM,64.0,46.9,54,29.80,10.0,SSE,9.2,18.4,N/A,,Clear,150,2013-10-11 05:53:00
1:53 AM,63.0,48.0,58,29.80,10.0,SE,11.5,-,N/A,,Clear,140,2013-10-11 06:53:00
2:53 AM,61.0,48.9,64,29.80,10.0,SE,8.1,-,N/A,,Clear,130,2013-10-11 07:53:00
3:53 AM,59.0,48.9,69,29.80,10.0,SE,8.1,-,N/A,,Clear,130,2013-10-11 08:53:00
4:53 AM,57.0,48.9,74,29.79,10.0,ESE,11.5,-,N/A,,Clear,120,2013-10-11 09:53:00
5:53 AM,55.9,48.9,77,29.77,10.0,ESE,16.1,-,N/A,,Clear,120,2013-10-11 10:53:00
6:53 AM,55.9,48.9,77,29.75,10.0,ESE,16.1,-,N/A,,Clear,120,2013-10-11 11:53:00
7:53 AM,57.0,50.0,77,29.73,10.0,SE,16.1,24.2,N/A,,Clear,130,2013-10-11 12:53:00
8:53 AM,57.9,51.1,78,29.71,10.0,SE,16.1,28.8,N/A,,Clear,130,2013-10-11 13:53:00
9:53 AM,60.1,52.0,75,29.70,10.0,SE,18.4,26.5,N/A,,Clear,130,2013-10-11 14:53:00
10:53 AM,63.0,53.1,70,29.66,10.0,SE,23.0,29.9,N/A,,Clear,130,2013-10-11 15:53:00
11:53 AM,66.0,54.0,65,29.64,10.0,SE,18.4,29.9,N/A,,Mostly Cloudy,140,2013-10-11 16:53:00
12:44 PM,64.4,53.6,68,29.61,10.0,SE,17.3,32.2,N/A,Thunderstorm,Overcast,140,2013-10-11 17:44:00
12:53 PM,64.0,55.0,73,29.63,7.0,South,18.4,31.1,0.01,Thunderstorm,Thunderstorm,170,2013-10-11 17:53:00
12:59 PM,62.6,55.4,77,29.62,1.8,SSE,13.8,26.5,0.08,Rain-Thunderstorm,Heavy Thunderstorms and Rain,160,2013-10-11 17:59:00
1:07 PM,62.6,57.2,82,29.62,2.0,SSE,15.0,-,0.12,Rain,Heavy Rain,150,2013-10-11 18:07:00
1:14 PM,60.8,57.2,88,29.61,1.5,SSE,16.1,-,0.16,Rain-Thunderstorm,Rain,150,2013-10-11 18:14:00
1:33 PM,60.8,57.2,88,29.56,3.0,ESE,21.9,28.8,0.23,Rain-Thunderstorm,Rain,120,2013-10-11 18:33:00
1:51 PM,60.8,57.2,88,29.57,7.0,SE,21.9,32.2,0.24,,Overcast,130,2013-10-11 18:51:00
1:53 PM,60.1,57.0,90,29.58,6.0,SE,19.6,28.8,0.24,Rain,Light Rain,140,2013-10-11 18:53:00
2:53 PM,61.0,59.0,93,29.56,10.0,SE,19.6,27.6,0.01,,Overcast,130,2013-10-11 19:53:00
3:39 PM,62.6,57.2,82,29.55,10.0,SE,19.6,25.3,N/A,,Overcast,140,2013-10-11 20:39:00
3:53 PM,62.1,59.0,90,29.56,10.0,SE,18.4,26.5,N/A,,Overcast,140,2013-10-11 20:53:00
4:53 PM,64.0,59.0,84,29.54,10.0,SE,23.0,33.4,N/A,,Mostly Cloudy,140,2013-10-11 21:53:00
5:00 PM,64.4,59.0,83,29.54,10.0,SE,24.2,32.2,N/A,,Scattered Clouds,140,2013-10-11 22:00:00
5:53 PM,64.0,57.9,80,29.50,10.0,SSE,27.6,41.4,N/A,,Overcast,150,2013-10-11 22:53:00
6:53 PM,63.0,60.1,90,29.49,5.0,SSE,31.1,44.9,0.02,Rain,Light Rain,160,2013-10-11 23:53:00
7:20 PM,62.6,57.2,82,29.51,8.0,South,26.5,47.2,0.01,Thunderstorm,Overcast,170,2013-10-12 00:20:00
7:48 PM,62.6,57.2,82,29.52,10.0,South,20.7,-,0.01,,Overcast,170,2013-10-12 00:48:00
7:53 PM,62.1,59.0,90,29.52,10.0,SSE,18.4,25.3,0.01,,Overcast,160,2013-10-12 00:53:00
8:53 PM,61.0,52.0,72,29.55,10.0,SW,16.1,-,N/A,,Scattered Clouds,230,2013-10-12 01:53:00
9:53 PM,55.0,48.9,80,29.58,10.0,SW,23.0,29.9,N/A,,Clear,220,2013-10-12 02:53:00
10:23 PM,53.6,48.2,82,29.59,10.0,SW,18.4,31.1,N/A,,Mostly Cloudy,220,2013-10-12 03:23:00
10:53 PM,53.1,46.9,80,29.61,10.0,SW,27.6,33.4,N/A,,Overcast,230,2013-10-12 03:53:00
11:53 PM,51.1,44.1,77,29.62,10.0,SW,23.0,32.2,N/A,,Overcast,220,2013-10-12 04:53:00